Weather History for Palm Springs, CA

Change the Weather History Date:

Saturday, March 16, 2013

  Actual Average Record
Temperature  
Mean Temperature 79 °F 66 °F  
Max Temperature 94 °F 79 °F 100 °F (2007)
Min Temperature 64 °F 53 °F 35 °F (1956)
Degree Days  
Heating Degree Days 0 3  
Month to date heating degree days 22 48  
Since 1 July heating degree days 760 826  
Cooling Degree Days 14 3  
Month to date cooling degree days 88 37  
Year to date cooling degree days 100 64  
Growing Degree Days 30 (Base 50)    
Moisture  
Dew Point 33 °F    
Average Humidity 22    
Maximum Humidity 35    
Minimum Humidity 8    
Precipitation  
Precipitation 0.00 in 0.01 in 0.79 in (1958)
Month to date precipitation 0.04 0.50  
Year to date precipitation 0.97 2.53  
Since 1 July precipitation 2.19 5.33  
Snow  
Snow 0.00 in - - ()
Month to date snowfall 0.0  
Year to date snowfall 0.0  
Since 1 July snowfall 0.0  
Snow Depth 0.00 in    
Sea Level Pressure  
Sea Level Pressure 29.75 in    
Wind  
Wind Speed 7 mph (NW)    
Max Wind Speed 25 mph    
Max Gust Speed 31 mph    
Visibility 10 miles    
Events      
T = Trace of Precipitation, MM = Missing Value Source: NWS Daily Summary

Daily Weather History Graph

Daily Weather History Graph

Search for Another Location

Airport:

Trip Planner

Search our weather history database for the weather conditions in past years. The results will help you decide how hot, cold, wet, or windy it might be!

Date:

Astronomy

Mar. 16, 2013 Rise Set
Actual Time 6:54 AM PDT 6:54 PM PDT
Civil Twilight 6:29 AM PDT 7:19 PM PDT
Nautical Twilight 6:00 AM PDT 7:48 PM PDT
Astronomical Twilight 5:31 AM PDT 8:17 PM PDT
Moon 9:41 AM PDT (3/16) 11:52 PM PDT (3/16)
Length of Visible Light 12h 49m
Length of Day
12h 00m
Waxing Crescent, 24% of the Moon is Illuminated
Mar 16
Waxing Crescent
Mar 19
First Quarter
Mar 27
Full
Apr 2
Last Quarter
Apr 10
New

Hourly Weather History & Observations

Time (PDT) Temp. Dew Point Humidity Pressure Visibility Wind Dir Wind Speed Gust Speed Precip Events Conditions
12:53 AM 73.0 °F 37.0 °F 27% 29.79 in 10.0 mi Calm Calm - N/A   Clear
1:53 AM 72.0 °F 36.0 °F 27% 29.78 in 10.0 mi Calm Calm - N/A   Clear
2:53 AM 73.0 °F 34.0 °F 24% 29.78 in 10.0 mi Calm Calm - N/A   Clear
3:53 AM 70.0 °F 34.0 °F 27% 29.76 in 10.0 mi Calm Calm - N/A   Clear
4:53 AM 70.0 °F 33.1 °F 26% 29.75 in 10.0 mi Calm Calm - N/A   Clear
5:53 AM 71.1 °F 30.9 °F 23% 29.76 in 10.0 mi Calm Calm - N/A   Clear
6:53 AM 68.0 °F 33.1 °F 27% 29.77 in 10.0 mi Calm Calm - N/A   Scattered Clouds
7:53 AM 66.0 °F 37.0 °F 34% 29.79 in 10.0 mi Calm Calm - N/A   Clear
8:53 AM 72.0 °F 36.0 °F 27% 29.80 in 10.0 mi SSW 4.6 mph - N/A   Clear
9:53 AM 78.1 °F 27.0 °F 15% 29.80 in 10.0 mi Calm Calm - N/A   Clear
10:53 AM 82.9 °F 23.0 °F 11% 29.79 in 10.0 mi SE 3.5 mph - N/A   Clear
11:53 AM 87.1 °F 25.0 °F 10% 29.78 in 10.0 mi Variable 4.6 mph - N/A   Clear
12:53 PM 90.0 °F 21.0 °F 8% 29.75 in 10.0 mi NNW 3.5 mph - N/A   Clear
1:53 PM 91.9 °F 27.0 °F 10% 29.74 in 10.0 mi WNW 11.5 mph 17.3 mph N/A   Clear
2:53 PM 93.0 °F 28.9 °F 10% 29.72 in 10.0 mi NW 19.6 mph 23.0 mph N/A   Clear
3:53 PM 93.0 °F 30.9 °F 11% 29.70 in 10.0 mi NW 13.8 mph - N/A   Clear
4:53 PM 91.9 °F 35.1 °F 13% 29.69 in 10.0 mi NW 16.1 mph - N/A   Clear
5:53 PM 88.0 °F 37.0 °F 16% 29.70 in 10.0 mi NW 19.6 mph 26.5 mph N/A   Clear
6:53 PM 84.0 °F 37.0 °F 19% 29.70 in 10.0 mi NW 21.9 mph 31.1 mph N/A   Clear
7:53 PM 82.0 °F 37.0 °F 20% 29.71 in 10.0 mi NW 19.6 mph 26.5 mph N/A   Clear
8:53 PM 80.1 °F 36.0 °F 20% 29.73 in 10.0 mi Variable 3.5 mph 19.6 mph N/A   Clear
9:53 PM 75.0 °F 41.0 °F 29% 29.75 in 10.0 mi ESE 5.8 mph - N/A   Clear
10:53 PM 73.0 °F 42.1 °F 33% 29.75 in 10.0 mi West 5.8 mph - N/A   Clear
11:53 PM 72.0 °F 42.1 °F 34% 29.75 in 10.0 mi West 4.6 mph - N/A   Clear